Time,TemperatureF,DewpointF,PressureIn,WindDirection,WindDirectionDegrees,WindSpeedMPH,WindSpeedGustMPH,Humidity,HourlyPrecipIn,Conditions,Clouds,dailyrainin,SoftwareType,DateUTC
2013-02-24 00:03:00,19.4,11.3,30.16,East,90,2.0,5.0,70,0.00,,,0.00,meteohub,2013-02-24 06:03:00,
2013-02-24 00:08:00,19.4,11.3,30.16,NE,45,2.0,5.0,70,0.00,,,0.00,meteohub,2013-02-24 06:08:00,
2013-02-24 00:13:00,19.4,11.3,30.16,East,90,2.0,5.0,70,0.00,,,0.00,meteohub,2013-02-24 06:13:00,
2013-02-24 00:18:00,19.2,9.7,30.16,SE,135,1.0,3.0,66,0.00,,,0.00,meteohub,2013-02-24 06:18:00,
2013-02-24 00:23:00,19.0,9.5,30.16,North,0,1.0,3.0,66,0.00,,,0.00,meteohub,2013-02-24 06:23:00,
2013-02-24 00:28:00,18.9,9.3,30.16,NE,45,0.0,3.0,66,0.00,,,0.00,meteohub,2013-02-24 06:28:00,
2013-02-24 00:34:00,18.7,9.1,30.16,NW,315,0.0,3.0,66,0.00,,,0.00,meteohub,2013-02-24 06:34:00,
2013-02-24 00:39:00,18.5,9.0,30.16,North,0,1.0,1.0,66,0.00,,,0.00,meteohub,2013-02-24 06:39:00,
2013-02-24 00:44:00,18.3,9.0,30.16,North,0,0.0,1.0,66,0.00,,,0.00,meteohub,2013-02-24 06:44:00,
2013-02-24 00:49:00,18.1,8.8,30.16,NE,45,1.0,1.0,66,0.00,,,0.00,meteohub,2013-02-24 06:49:00,
2013-02-24 00:54:00,18.0,8.6,30.16,East,90,1.0,2.0,66,0.00,,,0.00,meteohub,2013-02-24 06:54:00,
2013-02-24 00:59:00,17.8,8.4,30.17,East,90,1.0,2.0,66,0.00,,,0.00,meteohub,2013-02-24 06:59:00,
2013-02-24 01:04:00,17.6,8.2,30.17,East,90,3.0,3.0,66,0.00,,,0.00,meteohub,2013-02-24 07:04:00,
2013-02-24 01:09:00,17.6,8.2,30.17,SE,135,2.0,3.0,66,0.00,,,0.00,meteohub,2013-02-24 07:09:00,
2013-02-24 01:14:00,17.4,8.4,30.17,NE,45,1.0,3.0,67,0.00,,,0.00,meteohub,2013-02-24 07:14:00,
2013-02-24 01:19:00,17.2,8.2,30.17,ESE,113,1.0,3.0,67,0.00,,,0.00,meteohub,2013-02-24 07:19:00,
2013-02-24 01:24:00,17.1,8.1,30.17,SE,135,0.0,2.0,67,0.00,,,0.00,meteohub,2013-02-24 07:24:00,
2013-02-24 01:29:00,16.9,7.9,30.18,SE,135,2.0,2.0,67,0.00,,,0.00,meteohub,2013-02-24 07:29:00,
2013-02-24 01:34:00,16.7,7.7,30.18,East,90,2.0,2.0,67,0.00,,,0.00,meteohub,2013-02-24 07:34:00,
2013-02-24 01:39:00,16.7,7.7,30.18,SE,135,1.0,2.0,67,0.00,,,0.00,meteohub,2013-02-24 07:39:00,
2013-02-24 01:44:00,16.5,7.5,30.18,SE,135,2.0,2.0,67,0.00,,,0.00,meteohub,2013-02-24 07:44:00,
2013-02-24 01:49:00,16.5,7.5,30.19,SE,135,2.0,2.0,67,0.00,,,0.00,meteohub,2013-02-24 07:49:00,
2013-02-24 01:54:00,16.5,7.9,30.19,SE,135,2.0,2.0,68,0.00,,,0.00,meteohub,2013-02-24 07:54:00,
2013-02-24 01:59:00,16.5,7.9,30.19,East,90,2.0,2.0,68,0.00,,,0.00,meteohub,2013-02-24 07:59:00,
2013-02-24 02:04:00,16.5,7.9,30.18,East,90,2.0,2.0,68,0.00,,,0.00,meteohub,2013-02-24 08:04:00,
2013-02-24 02:09:00,16.7,8.1,30.19,SE,135,2.0,2.0,68,0.00,,,0.00,meteohub,2013-02-24 08:09:00,
2013-02-24 02:14:00,16.7,8.1,30.19,SE,135,2.0,2.0,68,0.00,,,0.00,meteohub,2013-02-24 08:14:00,
2013-02-24 02:19:00,16.7,8.1,30.19,SE,135,3.0,3.0,68,0.00,,,0.00,meteohub,2013-02-24 08:19:00,
2013-02-24 02:24:00,16.5,7.9,30.19,SE,135,3.0,3.0,68,0.00,,,0.00,meteohub,2013-02-24 08:24:00,
2013-02-24 02:29:00,16.5,7.9,30.19,East,90,2.0,4.0,68,0.00,,,0.00,meteohub,2013-02-24 08:29:00,
2013-02-24 02:34:00,16.5,7.9,30.19,SE,135,0.0,4.0,68,0.00,,,0.00,meteohub,2013-02-24 08:34:00,
2013-02-24 02:39:00,16.3,7.7,30.19,NE,45,1.0,4.0,68,0.00,,,0.00,meteohub,2013-02-24 08:39:00,
2013-02-24 02:44:00,16.2,7.5,30.19,SE,135,1.0,3.0,68,0.00,,,0.00,meteohub,2013-02-24 08:44:00,
2013-02-24 02:49:00,16.2,7.2,30.19,East,90,2.0,2.0,67,0.00,,,0.00,meteohub,2013-02-24 08:49:00,
2013-02-24 02:55:00,16.2,7.2,30.19,SE,135,2.0,2.0,67,0.00,,,0.00,meteohub,2013-02-24 08:55:00,
2013-02-24 03:00:00,16.2,7.2,30.19,SE,135,0.0,2.0,67,0.00,,,0.00,meteohub,2013-02-24 09:00:00,
2013-02-24 03:05:00,16.2,7.2,30.19,SE,135,1.0,2.0,67,0.00,,,0.00,meteohub,2013-02-24 09:05:00,
2013-02-24 03:10:00,16.0,7.0,30.19,SE,135,1.0,2.0,67,0.00,,,0.00,meteohub,2013-02-24 09:10:00,
2013-02-24 03:15:00,16.0,7.0,30.19,SE,135,2.0,2.0,67,0.00,,,0.00,meteohub,2013-02-24 09:15:00,
2013-02-24 03:20:00,16.0,7.0,30.19,SE,135,1.0,2.0,67,0.00,,,0.00,meteohub,2013-02-24 09:20:00,
2013-02-24 03:25:00,16.2,7.2,30.20,SE,135,2.0,2.0,67,0.00,,,0.00,meteohub,2013-02-24 09:25:00,
2013-02-24 03:30:00,16.2,7.2,30.19,SE,135,0.0,2.0,67,0.00,,,0.00,meteohub,2013-02-24 09:30:00,
2013-02-24 03:35:00,16.0,7.0,30.19,West,270,1.0,2.0,67,0.00,,,0.00,meteohub,2013-02-24 09:35:00,
2013-02-24 03:40:00,16.2,7.2,30.19,SW,225,0.0,2.0,67,0.00,,,0.00,meteohub,2013-02-24 09:40:00,
2013-02-24 03:45:00,16.0,7.0,30.19,South,180,1.0,1.0,67,0.00,,,0.00,meteohub,2013-02-24 09:45:00,
2013-02-24 03:50:00,16.0,7.0,30.19,South,180,0.0,1.0,67,0.00,,,0.00,meteohub,2013-02-24 09:50:00,
2013-02-24 03:55:00,16.0,7.0,30.19,SW,225,1.0,1.0,67,0.00,,,0.00,meteohub,2013-02-24 09:55:00,
2013-02-24 04:00:00,15.8,6.8,30.19,SW,225,0.0,1.0,67,0.00,,,0.00,meteohub,2013-02-24 10:00:00,
2013-02-24 04:05:00,15.8,6.8,30.19,SW,225,0.0,1.0,67,0.00,,,0.00,meteohub,2013-02-24 10:05:00,
2013-02-24 04:10:00,15.4,6.8,30.19,East,90,0.0,1.0,68,0.00,,,0.00,meteohub,2013-02-24 10:10:00,
2013-02-24 04:15:00,15.3,6.6,30.20,East,90,1.0,1.0,68,0.00,,,0.00,meteohub,2013-02-24 10:15:00,
2013-02-24 04:20:00,15.3,6.6,30.20,East,90,0.0,2.0,68,0.00,,,0.00,meteohub,2013-02-24 10:20:00,
2013-02-24 04:25:00,15.1,6.4,30.19,East,90,1.0,2.0,68,0.00,,,0.00,meteohub,2013-02-24 10:25:00,
2013-02-24 04:30:00,15.1,6.4,30.20,East,90,0.0,2.0,68,0.00,,,0.00,meteohub,2013-02-24 10:30:00,
2013-02-24 04:35:00,14.9,6.3,30.20,SE,135,2.0,2.0,68,0.00,,,0.00,meteohub,2013-02-24 10:35:00,
2013-02-24 04:40:00,14.9,6.3,30.20,East,90,0.0,2.0,68,0.00,,,0.00,meteohub,2013-02-24 10:40:00,
2013-02-24 04:45:00,14.7,6.1,30.20,SE,135,2.0,2.0,68,0.00,,,0.00,meteohub,2013-02-24 10:45:00,
2013-02-24 04:51:00,14.5,5.9,30.20,SE,135,0.0,2.0,68,0.00,,,0.00,meteohub,2013-02-24 10:51:00,
2013-02-24 04:56:00,14.4,5.7,30.19,SE,135,1.0,2.0,68,0.00,,,0.00,meteohub,2013-02-24 10:56:00,
2013-02-24 05:01:00,14.2,5.5,30.20,SE,135,0.0,2.0,68,0.00,,,0.00,meteohub,2013-02-24 11:01:00,
2013-02-24 05:06:00,14.0,5.4,30.21,SE,135,1.0,2.0,68,0.00,,,0.00,meteohub,2013-02-24 11:06:00,
2013-02-24 05:11:00,13.8,5.5,30.21,SE,135,2.0,2.0,69,0.00,,,0.00,meteohub,2013-02-24 11:11:00,
2013-02-24 05:16:00,13.8,5.5,30.21,SE,135,3.0,3.0,69,0.00,,,0.00,meteohub,2013-02-24 11:16:00,
2013-02-24 05:21:00,13.6,5.4,30.21,East,90,2.0,3.0,69,0.00,,,0.00,meteohub,2013-02-24 11:21:00,
2013-02-24 05:26:00,13.5,5.2,30.21,SE,135,0.0,3.0,69,0.00,,,0.00,meteohub,2013-02-24 11:26:00,
2013-02-24 05:31:00,13.3,5.0,30.21,SE,135,0.0,3.0,69,0.00,,,0.00,meteohub,2013-02-24 11:31:00,
2013-02-24 05:36:00,13.1,4.8,30.21,SE,135,1.0,2.0,69,0.00,,,0.00,meteohub,2013-02-24 11:36:00,
2013-02-24 05:41:00,12.9,4.6,30.21,SE,135,0.0,1.0,69,0.00,,,0.00,meteohub,2013-02-24 11:41:00,
2013-02-24 05:46:00,12.9,4.6,30.21,SE,135,0.0,1.0,69,0.00,,,0.00,meteohub,2013-02-24 11:46:00,
2013-02-24 05:51:00,12.7,4.5,30.21,SE,135,0.0,1.0,69,0.00,,,0.00,meteohub,2013-02-24 11:51:00,
2013-02-24 05:56:00,12.6,4.3,30.21,SE,135,0.0,0.0,69,0.00,,,0.00,meteohub,2013-02-24 11:56:00,
2013-02-24 06:01:00,12.4,4.1,30.22,SE,135,0.0,0.0,69,0.00,,,0.00,meteohub,2013-02-24 12:01:00,
2013-02-24 06:06:00,12.4,4.1,30.22,SE,135,0.0,0.0,69,0.00,,,0.00,meteohub,2013-02-24 12:06:00,
2013-02-24 06:11:00,11.8,3.9,30.22,SE,135,0.0,0.0,70,0.00,,,0.00,meteohub,2013-02-24 12:11:00,
2013-02-24 06:16:00,11.7,3.7,30.22,East,90,0.0,2.0,70,0.00,,,0.00,meteohub,2013-02-24 12:16:00,
2013-02-24 06:21:00,11.7,3.7,30.22,East,90,0.0,2.0,70,0.00,,,0.00,meteohub,2013-02-24 12:21:00,
2013-02-24 06:26:00,11.5,3.6,30.22,East,90,0.0,2.0,70,0.00,,,0.00,meteohub,2013-02-24 12:26:00,
2013-02-24 06:31:00,11.5,3.6,30.22,North,0,0.0,2.0,70,0.00,,,0.00,meteohub,2013-02-24 12:31:00,
2013-02-24 06:36:00,11.3,3.4,30.22,East,90,0.0,0.0,70,0.00,,,0.00,meteohub,2013-02-24 12:36:00,
2013-02-24 06:41:00,11.3,3.4,30.22,East,90,0.0,0.0,70,0.00,,,0.00,meteohub,2013-02-24 12:41:00,
2013-02-24 06:46:00,11.3,3.4,30.23,SE,135,1.0,1.0,70,0.00,,,0.00,meteohub,2013-02-24 12:46:00,
2013-02-24 06:51:00,11.3,3.7,30.23,SE,135,2.0,2.0,71,0.00,,,0.00,meteohub,2013-02-24 12:51:00,
2013-02-24 06:56:00,11.1,3.6,30.23,SE,135,0.0,2.0,71,0.00,,,0.00,meteohub,2013-02-24 12:56:00,
2013-02-24 07:01:00,10.9,3.4,30.22,SE,135,0.0,2.0,71,0.00,,,0.00,meteohub,2013-02-24 13:01:00,
2013-02-24 07:07:00,10.9,3.4,30.22,SE,135,0.0,2.0,71,0.00,,,0.00,meteohub,2013-02-24 13:07:00,
2013-02-24 07:12:00,10.9,3.4,30.22,SE,135,0.0,0.0,71,0.00,,,0.00,meteohub,2013-02-24 13:12:00,
2013-02-24 07:17:00,10.9,3.4,30.23,SE,135,0.0,0.0,71,0.00,,,0.00,meteohub,2013-02-24 13:17:00,
2013-02-24 07:22:00,11.1,3.6,30.24,East,90,2.0,0.0,71,0.00,,,0.00,meteohub,2013-02-24 13:22:00,
2013-02-24 07:27:00,11.3,3.7,30.24,East,90,1.0,2.0,71,0.00,,,0.00,meteohub,2013-02-24 13:27:00,
2013-02-24 07:32:00,11.7,4.1,30.24,NE,45,1.0,2.0,71,0.00,,,0.00,meteohub,2013-02-24 13:32:00,
2013-02-24 07:37:00,12.6,5.0,30.25,East,90,2.0,2.0,71,0.00,,,0.00,meteohub,2013-02-24 13:37:00,
2013-02-24 07:42:00,13.1,5.5,30.25,SE,135,1.0,2.0,71,0.00,,,0.00,meteohub,2013-02-24 13:42:00,
2013-02-24 07:47:00,14.0,6.1,30.24,SE,135,1.0,2.0,70,0.00,,,0.00,meteohub,2013-02-24 13:47:00,
2013-02-24 07:52:00,14.4,6.4,30.25,East,90,1.0,2.0,70,0.00,,,0.00,meteohub,2013-02-24 13:52:00,
2013-02-24 07:57:00,14.9,7.0,30.24,East,90,0.0,2.0,70,0.00,,,0.00,meteohub,2013-02-24 13:57:00,
2013-02-24 08:02:00,15.4,7.7,30.25,NW,315,0.0,2.0,71,0.00,,,0.00,meteohub,2013-02-24 14:02:00,
2013-02-24 08:07:00,16.3,8.2,30.25,East,90,1.0,2.0,70,0.00,,,0.00,meteohub,2013-02-24 14:07:00,
2013-02-24 08:12:00,17.4,9.3,30.25,ENE,68,1.0,1.0,70,0.00,,,0.00,meteohub,2013-02-24 14:12:00,
2013-02-24 08:17:00,18.1,9.7,30.25,NE,45,2.0,2.0,69,0.00,,,0.00,meteohub,2013-02-24 14:17:00,
2013-02-24 08:23:00,18.9,10.4,30.25,North,0,2.0,2.0,69,0.00,,,0.00,meteohub,2013-02-24 14:23:00,
2013-02-24 08:28:00,18.9,10.4,30.25,North,0,2.0,2.0,69,0.00,,,0.00,meteohub,2013-02-24 14:28:00,
2013-02-24 08:33:00,18.9,10.0,30.25,NW,315,1.0,2.0,68,0.00,,,0.00,meteohub,2013-02-24 14:33:00,
2013-02-24 08:38:00,19.2,10.4,30.25,NW,315,2.0,2.0,68,0.00,,,0.00,meteohub,2013-02-24 14:38:00,
2013-02-24 08:43:00,19.2,10.0,30.25,NW,315,2.0,2.0,67,0.00,,,0.00,meteohub,2013-02-24 14:43:00,
2013-02-24 08:48:00,19.2,9.7,30.25,NW,315,2.0,2.0,66,0.00,,,0.00,meteohub,2013-02-24 14:48:00,
2013-02-24 08:53:00,19.0,9.0,30.25,NE,45,2.0,3.0,64,0.00,,,0.00,meteohub,2013-02-24 14:53:00,
2013-02-24 08:58:00,19.4,10.6,30.25,NW,315,2.0,3.0,68,0.00,,,0.00,meteohub,2013-02-24 14:58:00,
2013-02-24 09:03:00,19.8,10.6,30.25,West,270,1.0,3.0,67,0.00,,,0.00,meteohub,2013-02-24 15:03:00,
2013-02-24 09:08:00,20.5,10.9,30.25,West,270,2.0,2.0,66,0.00,,,0.00,meteohub,2013-02-24 15:08:00,
2013-02-24 09:13:00,21.0,11.1,30.26,NW,315,2.0,2.0,65,0.00,,,0.00,meteohub,2013-02-24 15:13:00,
2013-02-24 09:18:00,21.4,11.1,30.26,West,270,2.0,2.0,64,0.00,,,0.00,meteohub,2013-02-24 15:18:00,
2013-02-24 09:23:00,22.3,11.7,30.26,East,90,0.0,2.0,63,0.00,,,0.00,meteohub,2013-02-24 15:23:00,
2013-02-24 09:28:00,23.5,12.4,30.25,NW,315,3.0,3.0,62,0.00,,,0.00,meteohub,2013-02-24 15:28:00,
2013-02-24 09:34:00,24.3,12.7,30.25,NW,315,3.0,3.0,61,0.00,,,0.00,meteohub,2013-02-24 15:34:00,
2013-02-24 09:39:00,24.3,12.4,30.25,West,270,4.0,4.0,60,0.00,,,0.00,meteohub,2013-02-24 15:39:00,
2013-02-24 09:44:00,24.3,12.4,30.25,NW,315,3.0,4.0,60,0.00,,,0.00,meteohub,2013-02-24 15:44:00,
2013-02-24 09:49:00,24.8,12.6,30.26,NE,45,3.0,4.0,59,0.00,,,0.00,meteohub,2013-02-24 15:49:00,
2013-02-24 09:54:00,25.3,13.1,30.26,NE,45,1.0,4.0,59,0.00,,,0.00,meteohub,2013-02-24 15:54:00,
2013-02-24 09:59:00,25.3,13.1,30.26,NE,45,2.0,4.0,59,0.00,,,0.00,meteohub,2013-02-24 15:59:00,
2013-02-24 10:04:00,25.3,13.1,30.27,West,270,1.0,4.0,59,0.00,,,0.00,meteohub,2013-02-24 16:04:00,
2013-02-24 10:09:00,26.1,13.6,30.27,North,0,3.0,4.0,59,0.00,,,0.00,meteohub,2013-02-24 16:09:00,
2013-02-24 10:14:00,26.6,13.8,30.27,NE,45,2.0,4.0,58,0.00,,,0.00,meteohub,2013-02-24 16:14:00,
2013-02-24 10:19:00,26.8,14.0,30.27,ESE,113,4.0,4.0,58,0.00,,,0.00,meteohub,2013-02-24 16:19:00,
2013-02-24 10:24:00,27.0,13.3,30.27,NE,45,4.0,4.0,56,0.00,,,0.00,meteohub,2013-02-24 16:24:00,
2013-02-24 10:29:00,26.6,12.2,30.27,East,90,2.0,4.0,54,0.00,,,0.00,meteohub,2013-02-24 16:29:00,
2013-02-24 10:34:00,27.1,13.1,30.27,North,0,2.0,5.0,55,0.00,,,0.00,meteohub,2013-02-24 16:34:00,
2013-02-24 10:39:00,27.7,14.0,30.27,North,0,2.0,5.0,56,0.00,,,0.00,meteohub,2013-02-24 16:39:00,
2013-02-24 10:44:00,29.1,16.9,30.27,North,0,1.0,5.0,60,0.00,,,0.00,meteohub,2013-02-24 16:44:00,
2013-02-24 10:49:00,30.2,17.6,30.27,North,0,3.0,3.0,59,0.00,,,0.00,meteohub,2013-02-24 16:49:00,
2013-02-24 10:54:00,30.0,16.7,30.27,West,270,2.0,4.0,57,0.00,,,0.00,meteohub,2013-02-24 16:54:00,
2013-02-24 10:59:00,29.7,15.8,30.27,North,0,4.0,5.0,56,0.00,,,0.00,meteohub,2013-02-24 16:59:00,
2013-02-24 11:04:00,29.3,15.6,30.27,NW,315,3.0,5.0,56,0.01,,,0.01,meteohub,2013-02-24 17:04:00,
2013-02-24 11:09:00,29.8,16.5,30.27,East,90,3.0,5.0,57,0.01,,,0.01,meteohub,2013-02-24 17:09:00,
2013-02-24 11:14:00,31.6,17.8,30.27,NW,315,4.0,5.0,56,0.01,,,0.01,meteohub,2013-02-24 17:14:00,
2013-02-24 11:19:00,32.9,18.5,30.27,NE,45,3.0,5.0,55,0.01,,,0.01,meteohub,2013-02-24 17:19:00,
2013-02-24 11:24:00,32.7,17.4,30.27,SE,135,3.0,4.0,53,0.01,,,0.01,meteohub,2013-02-24 17:24:00,
2013-02-24 11:30:00,32.5,16.9,30.27,North,0,2.0,5.0,52,0.01,,,0.01,meteohub,2013-02-24 17:30:00,
2013-02-24 11:35:00,32.7,17.4,30.27,North,0,4.0,5.0,53,0.01,,,0.01,meteohub,2013-02-24 17:35:00,
2013-02-24 11:40:00,33.3,17.6,30.28,North,0,3.0,5.0,52,0.01,,,0.01,meteohub,2013-02-24 17:40:00,
2013-02-24 11:45:00,32.7,16.5,30.28,NE,45,4.0,5.0,51,0.01,,,0.01,meteohub,2013-02-24 17:45:00,
2013-02-24 11:50:00,32.9,16.7,30.28,North,0,4.0,5.0,51,0.01,,,0.01,meteohub,2013-02-24 17:50:00,
2013-02-24 11:55:00,32.9,16.7,30.28,SE,135,3.0,5.0,51,0.01,,,0.01,meteohub,2013-02-24 17:55:00,
2013-02-24 12:00:00,33.4,17.2,30.29,NE,45,8.0,8.0,51,0.01,,,0.01,meteohub,2013-02-24 18:00:00,
2013-02-24 12:05:00,33.4,17.2,30.29,NE,45,8.0,8.0,51,0.00,,,0.01,meteohub,2013-02-24 18:05:00,
2013-02-24 12:10:00,34.2,17.1,30.28,NW,315,2.0,8.0,49,0.00,,,0.01,meteohub,2013-02-24 18:10:00,
2013-02-24 12:15:00,34.3,17.2,30.28,West,270,3.0,8.0,49,0.00,,,0.01,meteohub,2013-02-24 18:15:00,
2013-02-24 12:20:00,34.9,17.6,30.28,NW,315,3.0,8.0,49,0.00,,,0.01,meteohub,2013-02-24 18:20:00,
2013-02-24 12:25:00,35.1,17.8,30.27,North,0,5.0,6.0,49,0.00,,,0.01,meteohub,2013-02-24 18:25:00,
2013-02-24 12:30:00,35.8,18.0,30.27,NE,45,6.0,8.0,48,0.00,,,0.01,meteohub,2013-02-24 18:30:00,
2013-02-24 12:35:00,35.8,16.5,30.27,North,0,4.0,8.0,45,0.00,,,0.01,meteohub,2013-02-24 18:35:00,
2013-02-24 12:40:00,35.6,16.3,30.27,NE,45,8.0,9.0,45,0.00,,,0.01,meteohub,2013-02-24 18:40:00,
2013-02-24 12:45:00,36.3,17.6,30.27,North,0,5.0,9.0,46,0.00,,,0.01,meteohub,2013-02-24 18:45:00,
2013-02-24 12:50:00,36.3,17.1,30.27,NE,45,6.0,9.0,45,0.00,,,0.01,meteohub,2013-02-24 18:50:00,
2013-02-24 12:55:00,36.5,17.2,30.27,North,0,7.0,8.0,45,0.00,,,0.01,meteohub,2013-02-24 18:55:00,
2013-02-24 13:00:00,36.7,16.9,30.27,East,90,6.0,7.0,44,0.00,,,0.01,meteohub,2013-02-24 19:00:00,
2013-02-24 13:05:00,36.7,16.3,30.27,East,90,7.0,8.0,43,0.00,,,0.01,meteohub,2013-02-24 19:05:00,
2013-02-24 13:10:00,36.3,16.0,30.27,NW,315,4.0,8.0,43,0.00,,,0.01,meteohub,2013-02-24 19:10:00,
2013-02-24 13:16:00,36.7,16.9,30.27,North,0,4.0,8.0,44,0.00,,,0.01,meteohub,2013-02-24 19:16:00,
2013-02-24 13:21:00,36.9,17.1,30.27,NE,45,8.0,8.0,44,0.00,,,0.01,meteohub,2013-02-24 19:21:00,
2013-02-24 13:26:00,35.8,15.4,30.27,North,0,11.0,11.0,43,0.00,,,0.01,meteohub,2013-02-24 19:26:00,
2013-02-24 13:31:00,36.3,17.1,30.27,East,90,6.0,11.0,45,0.00,,,0.01,meteohub,2013-02-24 19:31:00,
2013-02-24 13:36:00,37.0,16.7,30.27,North,0,8.0,11.0,43,0.00,,,0.01,meteohub,2013-02-24 19:36:00,
2013-02-24 13:41:00,37.0,16.7,30.27,North,0,8.0,11.0,43,0.00,,,0.01,meteohub,2013-02-24 19:41:00,
2013-02-24 13:46:00,36.0,15.6,30.27,North,0,5.0,11.0,43,0.00,,,0.01,meteohub,2013-02-24 19:46:00,
2013-02-24 13:51:00,36.5,16.7,30.26,SE,135,2.0,10.0,44,0.00,,,0.01,meteohub,2013-02-24 19:51:00,
2013-02-24 13:56:00,37.2,17.2,30.26,North,0,8.0,10.0,44,0.00,,,0.01,meteohub,2013-02-24 19:56:00,
2013-02-24 14:01:00,36.7,16.3,30.26,ENE,68,3.0,10.0,43,0.00,,,0.01,meteohub,2013-02-24 20:01:00,
2013-02-24 14:06:00,36.7,16.3,30.26,ENE,68,3.0,9.0,43,0.00,,,0.01,meteohub,2013-02-24 20:06:00,
2013-02-24 14:11:00,36.7,16.3,30.26,North,0,6.0,9.0,43,0.00,,,0.01,meteohub,2013-02-24 20:11:00,
2013-02-24 14:16:00,36.9,17.1,30.26,NW,315,4.0,8.0,44,0.00,,,0.01,meteohub,2013-02-24 20:16:00,
2013-02-24 14:21:00,37.2,17.2,30.25,North,0,4.0,8.0,44,0.00,,,0.01,meteohub,2013-02-24 20:21:00,
2013-02-24 14:26:00,36.9,16.5,30.25,NE,45,8.0,8.0,43,0.00,,,0.01,meteohub,2013-02-24 20:26:00,
2013-02-24 14:31:00,36.1,15.8,30.26,NE,45,6.0,10.0,43,0.00,,,0.01,meteohub,2013-02-24 20:31:00,
2013-02-24 14:36:00,36.0,16.2,30.25,North,0,6.0,10.0,44,0.00,,,0.01,meteohub,2013-02-24 20:36:00,
2013-02-24 14:41:00,35.6,15.8,30.25,North,0,6.0,10.0,44,0.00,,,0.01,meteohub,2013-02-24 20:41:00,
2013-02-24 14:46:00,35.2,16.5,30.25,North,0,4.0,11.0,46,0.00,,,0.01,meteohub,2013-02-24 20:46:00,
2013-02-24 14:51:00,34.9,16.2,30.25,North,0,3.0,11.0,46,0.00,,,0.01,meteohub,2013-02-24 20:51:00,
2013-02-24 14:56:00,35.4,17.2,30.25,North,0,6.0,11.0,47,0.00,,,0.01,meteohub,2013-02-24 20:56:00,
2013-02-24 15:01:00,37.0,18.7,30.26,North,0,6.0,10.0,47,0.00,,,0.01,meteohub,2013-02-24 21:01:00,
2013-02-24 15:06:00,36.7,16.3,30.25,North,0,6.0,7.0,43,0.00,,,0.01,meteohub,2013-02-24 21:06:00,
2013-02-24 15:11:00,36.3,16.5,30.25,NNW,338,8.0,8.0,44,0.00,,,0.01,meteohub,2013-02-24 21:11:00,
2013-02-24 15:16:00,36.1,16.3,30.25,North,0,11.0,11.0,44,0.00,,,0.01,meteohub,2013-02-24 21:16:00,
2013-02-24 15:21:00,36.0,16.2,30.25,East,90,8.0,11.0,44,0.00,,,0.01,meteohub,2013-02-24 21:21:00,
2013-02-24 15:27:00,36.3,16.0,30.25,SE,135,6.0,11.0,43,0.00,,,0.01,meteohub,2013-02-24 21:27:00,
2013-02-24 15:32:00,36.0,15.6,30.25,North,0,9.0,11.0,43,0.00,,,0.01,meteohub,2013-02-24 21:32:00,
2013-02-24 15:37:00,35.2,16.0,30.25,NE,45,7.0,9.0,45,0.00,,,0.01,meteohub,2013-02-24 21:37:00,
2013-02-24 15:42:00,34.5,15.4,30.25,North,0,2.0,9.0,45,0.00,,,0.01,meteohub,2013-02-24 21:42:00,
2013-02-24 15:47:00,34.3,15.6,30.25,SE,135,4.0,9.0,46,0.00,,,0.01,meteohub,2013-02-24 21:47:00,
2013-02-24 15:52:00,34.5,16.3,30.25,North,0,7.0,7.0,47,0.00,,,0.01,meteohub,2013-02-24 21:52:00,
2013-02-24 15:57:00,34.3,15.6,30.26,North,0,7.0,8.0,46,0.00,,,0.01,meteohub,2013-02-24 21:57:00,
2013-02-24 16:02:00,34.2,15.6,30.25,North,0,5.0,8.0,46,0.00,,,0.01,meteohub,2013-02-24 22:02:00,
2013-02-24 16:07:00,34.2,15.6,30.25,North,0,5.0,8.0,46,0.00,,,0.01,meteohub,2013-02-24 22:07:00,
2013-02-24 16:12:00,34.0,15.8,30.25,NE,45,4.0,8.0,47,0.00,,,0.01,meteohub,2013-02-24 22:12:00,
2013-02-24 16:17:00,33.8,15.6,30.25,NE,45,8.0,8.0,47,0.00,,,0.01,meteohub,2013-02-24 22:17:00,
2013-02-24 16:22:00,33.3,15.6,30.25,North,0,3.0,10.0,48,0.00,,,0.01,meteohub,2013-02-24 22:22:00,
2013-02-24 16:27:00,33.4,16.9,30.25,North,0,8.0,10.0,50,0.00,,,0.01,meteohub,2013-02-24 22:27:00,
2013-02-24 16:32:00,33.3,16.7,30.25,North,0,3.0,8.0,50,0.00,,,0.01,meteohub,2013-02-24 22:32:00,
2013-02-24 16:37:00,33.3,16.7,30.25,North,0,3.0,8.0,50,0.00,,,0.01,meteohub,2013-02-24 22:37:00,
2013-02-24 16:42:00,33.6,16.9,30.25,North,0,6.0,8.0,50,0.00,,,0.01,meteohub,2013-02-24 22:42:00,
2013-02-24 16:47:00,33.8,16.7,30.25,North,0,6.0,8.0,49,0.00,,,0.01,meteohub,2013-02-24 22:47:00,
2013-02-24 16:52:00,33.8,16.2,30.25,North,0,3.0,7.0,48,0.00,,,0.01,meteohub,2013-02-24 22:52:00,
2013-02-24 16:57:00,34.0,16.3,30.25,NE,45,5.0,7.0,48,0.00,,,0.01,meteohub,2013-02-24 22:57:00,
2013-02-24 17:02:00,33.6,16.0,30.25,NE,45,8.0,8.0,48,0.00,,,0.01,meteohub,2013-02-24 23:02:00,
2013-02-24 17:07:00,33.4,16.3,30.25,North,0,3.0,8.0,49,0.00,,,0.01,meteohub,2013-02-24 23:07:00,
2013-02-24 17:12:00,33.3,16.2,30.25,North,0,3.0,8.0,49,0.00,,,0.01,meteohub,2013-02-24 23:12:00,
2013-02-24 17:17:00,33.1,16.5,30.25,NE,45,4.0,8.0,50,0.00,,,0.01,meteohub,2013-02-24 23:17:00,
2013-02-24 17:22:00,32.7,16.2,30.25,North,0,5.0,7.0,50,0.00,,,0.01,meteohub,2013-02-24 23:22:00,
2013-02-24 17:27:00,32.4,15.8,30.26,NE,45,6.0,7.0,50,0.00,,,0.01,meteohub,2013-02-24 23:27:00,
2013-02-24 17:32:00,32.2,15.6,30.26,North,0,6.0,7.0,50,0.00,,,0.01,meteohub,2013-02-24 23:32:00,
2013-02-24 17:37:00,31.8,16.2,30.25,North,0,4.0,6.0,52,0.00,,,0.01,meteohub,2013-02-24 23:37:00,
2013-02-24 17:42:00,31.5,15.8,30.26,North,0,5.0,6.0,52,0.00,,,0.01,meteohub,2013-02-24 23:42:00,
2013-02-24 17:47:00,31.1,15.4,30.26,North,0,4.0,6.0,52,0.00,,,0.01,meteohub,2013-02-24 23:47:00,
2013-02-24 17:52:00,30.7,15.6,30.26,North,0,3.0,6.0,53,0.00,,,0.01,meteohub,2013-02-24 23:52:00,
2013-02-24 17:57:00,30.6,15.4,30.26,North,0,3.0,6.0,53,0.00,,,0.01,meteohub,2013-02-24 23:57:00,
2013-02-24 18:02:00,30.2,15.1,30.26,North,0,3.0,5.0,53,0.00,,,0.01,meteohub,2013-02-25 00:02:00,
2013-02-24 18:07:00,29.8,15.6,30.26,North,0,2.0,4.0,55,0.00,,,0.00,meteohub,2013-02-25 00:07:00,
2013-02-24 18:12:00,29.7,15.4,30.26,North,0,4.0,5.0,55,0.00,,,0.00,meteohub,2013-02-25 00:12:00,
2013-02-24 18:17:00,29.5,15.3,30.26,NE,45,7.0,7.0,55,0.00,,,0.00,meteohub,2013-02-25 00:17:00,
2013-02-24 18:22:00,29.5,15.3,30.26,North,0,5.0,7.0,55,0.00,,,0.00,meteohub,2013-02-25 00:22:00,
2013-02-24 18:27:00,29.3,15.1,30.26,North,0,4.0,7.0,55,0.00,,,0.00,meteohub,2013-02-25 00:27:00,
2013-02-24 18:32:00,29.1,14.9,30.27,North,0,3.0,7.0,55,0.00,,,0.00,meteohub,2013-02-25 00:32:00,
2013-02-24 18:37:00,28.9,14.7,30.27,North,0,2.0,6.0,55,0.00,,,0.00,meteohub,2013-02-25 00:37:00,
2013-02-24 18:42:00,28.8,15.1,30.27,East,90,2.0,8.0,56,0.00,,,0.00,meteohub,2013-02-25 00:42:00,
2013-02-24 18:47:00,28.8,15.1,30.27,ENE,68,4.0,8.0,56,0.00,,,0.00,meteohub,2013-02-25 00:47:00,
2013-02-24 18:52:00,28.6,14.9,30.27,NE,45,4.0,8.0,56,0.00,,,0.00,meteohub,2013-02-25 00:52:00,
2013-02-24 18:57:00,28.6,14.9,30.27,NE,45,4.0,7.0,56,0.00,,,0.00,meteohub,2013-02-25 00:57:00,
2013-02-24 19:02:00,28.4,14.7,30.28,East,90,3.0,4.0,56,0.00,,,0.00,meteohub,2013-02-25 01:02:00,
2013-02-24 19:07:00,28.4,14.7,30.28,NE,45,3.0,4.0,56,0.00,,,0.00,meteohub,2013-02-25 01:07:00,
2013-02-24 19:12:00,28.2,13.3,30.28,NE,45,4.0,4.0,53,0.00,,,0.00,meteohub,2013-02-25 01:12:00,
2013-02-24 19:17:00,28.2,13.3,30.28,NE,45,3.0,4.0,53,0.00,,,0.00,meteohub,2013-02-25 01:17:00,
2013-02-24 19:22:00,28.0,13.1,30.28,NE,45,2.0,4.0,53,0.00,,,0.00,meteohub,2013-02-25 01:22:00,
2013-02-24 19:27:00,27.9,12.9,30.28,North,0,2.0,4.0,53,0.00,,,0.00,meteohub,2013-02-25 01:27:00,
2013-02-24 19:32:00,27.9,12.9,30.27,North,0,1.0,4.0,53,0.00,,,0.00,meteohub,2013-02-25 01:32:00,
2013-02-24 19:37:00,27.7,12.7,30.28,North,0,1.0,2.0,53,0.00,,,0.00,meteohub,2013-02-25 01:37:00,
2013-02-24 19:42:00,27.3,12.4,30.27,North,0,0.0,2.0,53,0.00,,,0.00,meteohub,2013-02-25 01:42:00,
2013-02-24 19:47:00,27.0,12.0,30.28,North,0,0.0,1.0,53,0.00,,,0.00,meteohub,2013-02-25 01:47:00,
2013-02-24 19:52:00,26.8,12.4,30.27,North,0,0.0,1.0,54,0.00,,,0.00,meteohub,2013-02-25 01:52:00,
2013-02-24 19:57:00,26.4,12.4,30.27,North,0,0.0,0.0,55,0.00,,,0.00,meteohub,2013-02-25 01:57:00,
2013-02-24 20:02:00,26.2,12.7,30.27,SE,135,0.0,0.0,56,0.00,,,0.00,meteohub,2013-02-25 02:02:00,
2013-02-24 20:07:00,26.1,12.6,30.27,SE,135,0.0,0.0,56,0.00,,,0.00,meteohub,2013-02-25 02:07:00,
2013-02-24 20:12:00,25.9,12.7,30.27,SE,135,0.0,0.0,57,0.00,,,0.00,meteohub,2013-02-25 02:12:00,
2013-02-24 20:17:00,25.7,12.6,30.27,SE,135,0.0,0.0,57,0.00,,,0.00,meteohub,2013-02-25 02:17:00,
2013-02-24 20:22:00,25.5,12.7,30.28,SE,135,0.0,0.0,58,0.00,,,0.00,meteohub,2013-02-25 02:22:00,
2013-02-24 20:27:00,25.3,13.1,30.27,SE,135,0.0,0.0,59,0.00,,,0.00,meteohub,2013-02-25 02:27:00,
2013-02-24 20:32:00,25.2,12.9,30.27,SE,135,0.0,1.0,59,0.00,,,0.00,meteohub,2013-02-25 02:32:00,
2013-02-24 20:37:00,25.0,12.7,30.27,SE,135,1.0,1.0,59,0.00,,,0.00,meteohub,2013-02-25 02:37:00,
2013-02-24 20:42:00,24.8,12.6,30.27,SE,135,0.0,1.0,59,0.00,,,0.00,meteohub,2013-02-25 02:42:00,
2013-02-24 20:47:00,24.6,13.1,30.28,SE,135,0.0,1.0,61,0.00,,,0.00,meteohub,2013-02-25 02:47:00,
2013-02-24 20:52:00,24.4,12.9,30.27,SE,135,0.0,1.0,61,0.00,,,0.00,meteohub,2013-02-25 02:52:00,
2013-02-24 20:57:00,24.3,12.7,30.28,SE,135,0.0,0.0,61,0.00,,,0.00,meteohub,2013-02-25 02:57:00,
2013-02-24 21:02:00,24.1,12.6,30.28,SE,135,0.0,0.0,61,0.00,,,0.00,meteohub,2013-02-25 03:02:00,
2013-02-24 21:07:00,23.9,12.4,30.28,SE,135,0.0,0.0,61,0.00,,,0.00,meteohub,2013-02-25 03:07:00,
2013-02-24 21:12:00,23.5,12.0,30.28,SE,135,0.0,0.0,61,0.00,,,0.00,meteohub,2013-02-25 03:12:00,
2013-02-24 21:17:00,23.4,12.2,30.28,SE,135,0.0,0.0,62,0.00,,,0.00,meteohub,2013-02-25 03:17:00,
2013-02-24 21:22:00,23.2,12.0,30.29,SE,135,0.0,0.0,62,0.00,,,0.00,meteohub,2013-02-25 03:22:00,
2013-02-24 21:28:00,23.2,12.0,30.29,SE,135,0.0,0.0,62,0.00,,,0.00,meteohub,2013-02-25 03:28:00,
2013-02-24 21:33:00,23.0,12.2,30.28,SE,135,0.0,1.0,63,0.00,,,0.00,meteohub,2013-02-25 03:33:00,
2013-02-24 21:38:00,22.8,12.6,30.29,SE,135,1.0,1.0,64,0.00,,,0.00,meteohub,2013-02-25 03:38:00,
2013-02-24 21:43:00,22.8,12.6,30.29,East,90,0.0,1.0,64,0.00,,,0.00,meteohub,2013-02-25 03:43:00,
2013-02-24 21:48:00,22.6,12.4,30.29,East,90,0.0,1.0,64,0.00,,,0.00,meteohub,2013-02-25 03:48:00,
2013-02-24 21:53:00,22.5,12.2,30.28,East,90,0.0,1.0,64,0.00,,,0.00,meteohub,2013-02-25 03:53:00,
2013-02-24 21:58:00,22.1,11.8,30.29,East,90,0.0,1.0,64,0.00,,,0.00,meteohub,2013-02-25 03:58:00,
2013-02-24 22:03:00,22.1,11.8,30.28,East,90,0.0,0.0,64,0.00,,,0.00,meteohub,2013-02-25 04:03:00,
2013-02-24 22:08:00,22.1,12.2,30.29,East,90,1.0,0.0,65,0.00,,,0.00,meteohub,2013-02-25 04:08:00,
2013-02-24 22:13:00,21.9,12.0,30.29,East,90,0.0,1.0,65,0.00,,,0.00,meteohub,2013-02-25 04:13:00,
2013-02-24 22:18:00,21.6,11.7,30.29,East,90,0.0,1.0,65,0.00,,,0.00,meteohub,2013-02-25 04:18:00,
2013-02-24 22:23:00,21.4,11.5,30.29,East,90,0.0,1.0,65,0.00,,,0.00,meteohub,2013-02-25 04:23:00,
2013-02-24 22:28:00,21.4,11.8,30.30,SE,135,2.0,2.0,66,0.00,,,0.00,meteohub,2013-02-25 04:28:00,
2013-02-24 22:33:00,21.4,11.8,30.30,SE,135,2.0,2.0,66,0.00,,,0.00,meteohub,2013-02-25 04:33:00,
2013-02-24 22:38:00,21.4,11.8,30.30,SE,135,2.0,2.0,66,0.00,,,0.00,meteohub,2013-02-25 04:38:00,
2013-02-24 22:43:00,21.9,12.6,30.30,SE,135,0.0,2.0,67,0.00,,,0.00,meteohub,2013-02-25 04:43:00,
2013-02-24 22:48:00,22.5,13.1,30.29,SE,135,1.0,2.0,67,0.00,,,0.00,meteohub,2013-02-25 04:48:00,
2013-02-24 22:53:00,22.6,13.6,30.29,SE,135,2.0,2.0,68,0.00,,,0.00,meteohub,2013-02-25 04:53:00,
2013-02-24 22:58:00,23.0,13.6,30.29,SE,135,1.0,2.0,67,0.00,,,0.00,meteohub,2013-02-25 04:58:00,
2013-02-24 23:00:00,23.0,13.6,30.29,SE,135,0.0,2.0,67,0.00,,,0.00,meteohub,2013-02-25 05:00:00,
2013-02-24 23:01:00,23.0,13.6,30.30,SE,135,0.0,2.0,67,0.00,,,0.00,meteohub,2013-02-25 05:01:00,
2013-02-24 23:02:00,23.0,13.6,30.29,SE,135,0.0,2.0,67,0.00,,,0.00,meteohub,2013-02-25 05:02:00,
2013-02-24 23:06:00,23.2,13.8,30.29,SE,135,0.0,2.0,67,0.00,,,0.00,meteohub,2013-02-25 05:06:00,
2013-02-24 23:11:00,23.2,13.8,30.29,SE,135,0.0,1.0,67,0.00,,,0.00,meteohub,2013-02-25 05:11:00,
2013-02-24 23:16:00,23.4,14.0,30.30,SE,135,0.0,0.0,67,0.00,,,0.00,meteohub,2013-02-25 05:16:00,
2013-02-24 23:21:00,23.5,14.2,30.30,SE,135,0.0,1.0,67,0.00,,,0.00,meteohub,2013-02-25 05:21:00,
2013-02-24 23:27:00,23.7,14.4,30.30,SE,135,0.0,1.0,67,0.00,,,0.00,meteohub,2013-02-25 05:27:00,
2013-02-24 23:32:00,23.9,14.5,30.30,SE,135,0.0,0.0,67,0.00,,,0.00,meteohub,2013-02-25 05:32:00,
2013-02-24 23:37:00,23.9,14.5,30.30,SE,135,0.0,1.0,67,0.00,,,0.00,meteohub,2013-02-25 05:37:00,
2013-02-24 23:42:00,24.1,14.4,30.30,SE,135,0.0,1.0,66,0.00,,,0.00,meteohub,2013-02-25 05:42:00,
2013-02-24 23:47:00,24.3,14.5,30.30,SE,135,0.0,1.0,66,0.00,,,0.00,meteohub,2013-02-25 05:47:00,
2013-02-24 23:52:00,24.3,14.5,30.30,SE,135,0.0,1.0,66,0.00,,,0.00,meteohub,2013-02-25 05:52:00,
2013-02-24 23:57:00,24.4,14.7,30.30,SE,135,0.0,1.0,66,0.00,,,0.00,meteohub,2013-02-25 05:57:00,